[[{"header":{"parameterUnit":"m.s-1","parameterCategory":1,"la1":30.2991,"la2":30.254,"lo1":-89.0895,"lo2":-89.0444,"dy":0.0017,"dx":0.0017,"nx":28,"ny":28,"refTime":"2024-08-24T21:00:00:Z","depth":0,"parameterNumber":2,"parameterNumberName":"U-component_of_WINDS"},"data":[0,0,0,0,0,0,0,0,0,0,0,0,0,0,0,0,0,0,0,0,0,0,0,0,0,0,0,0,0,0,0,0,0,0,0,0,0,0,0,0,0,0,0,0,0,0,0,0,0,0,0,0,0,0,0,0,0,0,-3.8249,-3.8245,0,-3.7876,-3.7872,-3.7867,-3.7582,-3.7579,-3.7577,-3.7574,-3.718,-3.7172,-3.7164,0,0,0,0,0,0,0,0,0,0,0,0,0,-3.8699,-3.8692,-3.8249,-3.8245,-3.824,-3.7877,-3.7872,-3.7866,-3.7582,-3.7579,-3.7576,-3.7573,-3.7182,-3.7173,-3.7163,0,0,0,0,0,0,0,0,0,0,0,0,0,-3.8433,-3.869,-3.825,-3.8055,-3.8034,-3.7878,-3.7871,-3.7865,-3.7583,-3.7579,-3.7575,-3.7571,-3.7185,-3.7174,-3.7162,-3.7166,0,0,-3.7125,-3.712,0,0,0,0,0,0,0,0,-3.8448,-3.8416,-3.8088,-3.8068,-3.8044,-3.7772,-3.7885,-3.763,-3.7584,-3.7754,-3.7574,-3.757,-3.7379,-3.7351,-3.7289,-3.7148,-3.7131,-3.7124,-3.7116,-3.7111,-3.7108,0,0,0,0,0,0,0,-3.8467,-3.8431,-3.8101,-3.8084,-3.8057,-3.798,-3.7938,-3.7835,-3.7593,-3.7739,-3.7717,-3.7678,-3.7366,-3.7301,-3.7278,-3.7125,-3.7124,-3.7113,-3.7106,-3.7101,-3.696,-3.6963,0,0,0,0,0,0,-3.8518,-3.8448,-3.8113,-3.809,-3.8241,-3.7976,-3.7928,-3.7863,-3.7593,-3.7548,-3.7681,-3.7666,-3.7324,-3.7292,-3.7263,-3.7245,-3.7111,-3.71,-3.7093,-3.6956,-3.6961,-3.6964,0,0,0,0,0,0,-3.8529,-3.8491,-3.8128,-3.8263,-3.8211,-3.7972,-3.7901,-3.7858,-3.7793,-3.755,-3.7504,-3.7661,-3.732,-3.728,-3.7191,-3.7227,-3.7095,-3.7084,-3.6952,-3.6958,-3.6963,-3.7214,0,0,0,0,0,0,-3.8543,-3.8496,-3.85,-3.8265,-3.8205,-3.8069,-3.7903,-3.7853,-3.7774,-3.775,-3.7518,-3.7476,-3.7313,-3.7211,-3.718,-3.7208,-3.7074,-3.6948,-3.6955,-3.6961,-3.7201,-3.7227,-3.7249,0,0,0,0,0,-3.856,-3.8584,-3.8502,-3.8463,-3.8205,-3.8072,-3.8036,-3.7852,-3.7779,-3.7776,-3.7619,-3.7483,-3.723,-3.7205,-3.7166,-3.7192,-3.6945,-3.6953,-3.696,-3.719,-3.7222,-3.7248,0,0,0,0,0,0,-3.8825,-3.855,-3.8455,-3.8405,-3.8265,-3.8024,-3.8016,-3.7892,-3.7766,-3.7749,-3.7521,-3.7471,-3.7406,-3.7289,-3.7267,-3.7178,-3.7069,-3.707,-3.7257,-3.7285,-3.7308,-3.7336,-3.7064,0,0,0,0,0,-3.8879,-3.8799,-3.856,-3.8538,-3.8473,-3.8258,-3.8193,-3.8063,-3.7906,-3.7844,-3.768,-3.7529,-3.7414,-3.7343,-3.7224,-3.7183,-3.7124,-3.7181,-3.7206,-3.7226,-3.7229,-3.7191,-3.7212,-3.699,-3.699,-3.699,0,0,-3.8987,-3.8826,-3.8789,-3.8587,-3.8463,-3.8379,-3.8209,-3.8129,-3.8062,-3.7829,-3.7736,-3.7611,-3.7427,-3.7361,-3.7324,-3.7262,-3.7277,-3.7236,-3.7255,-3.7245,-3.7202,-3.7223,-3.7242,-3.6996,-3.6995,-3.6994,0,0,-3.914,-3.9014,-3.8979,-3.8858,-3.8673,-3.8529,-3.8521,-3.8298,-3.8207,-3.8111,-3.7933,-3.7848,-3.7657,-3.7531,-3.7442,-3.7544,-3.7412,-3.7512,-3.7636,-3.7602,-3.7619,-3.7634,-3.7665,-3.7679,-3.7515,-3.7516,-3.7516,0,-3.9296,-3.9168,-3.8976,-3.8905,-3.8819,-3.8609,-3.8568,-3.8458,-3.8243,-3.8185,-3.8121,-3.7873,-3.7734,-3.7633,-3.7658,-3.7595,-3.7573,-3.7536,-3.7634,-3.7646,-3.7656,-3.7683,-3.7696,-3.7529,-3.7527,-3.7526,-3.7525,0,-3.9366,-3.928,-3.9273,-3.9073,-3.8986,-3.8932,-3.8726,-3.8659,-3.8537,-3.8398,-3.8298,-3.8125,-3.7965,-3.7931,-3.781,-3.7811,-3.7778,-3.7678,-3.7562,-3.7694,-3.7714,-3.7724,-3.7547,-3.7543,-3.7539,-3.7536,0,0,-3.9676,-3.9371,-3.9371,-3.9275,-3.9054,-3.898,-3.8913,-3.876,-3.8705,-3.8562,-3.8495,-3.8337,-3.824,-3.814,-3.8001,-3.7973,-3.8058,-3.7873,-3.7865,-3.791,-3.8041,-3.8116,-3.8132,-3.797,-3.7971,-3.7972,-3.8055,0,-3.9791,-3.9665,-3.9488,-3.9417,-3.933,-3.9127,-3.9067,-3.8922,-3.879,-3.8692,-3.8543,-3.8433,-3.8317,-3.8254,-3.8217,-3.8057,-3.8081,-3.8048,-3.7899,-3.7897,-3.7949,-3.8144,-3.8224,-3.831,-3.8062,-3.8064,-3.8065,0,-3.9909,-3.9781,-3.9703,-3.9484,-3.9441,-3.9392,-3.9234,-3.9146,-3.8974,-3.8878,-3.8766,-3.8617,-3.8527,-3.8427,-3.8298,-3.828,-3.8208,-3.812,-3.8118,-3.8094,-3.7987,-3.8121,-3.8334,-3.8346,-3.8077,-3.8076,-3.8075,0,-4.0138,-3.9945,-3.9871,-3.9796,-3.9541,-3.951,-3.9401,-3.9226,-3.9143,-3.9004,-3.8946,-3.8799,-3.8716,-3.8602,-3.8413,-3.8359,-3.8302,-3.8187,-3.8215,-3.822,-3.821,-3.8213,-3.8411,-3.8172,-3.8172,-3.8172,-3.8171,0,-4.0283,-4.0242,-3.997,-3.9925,-3.9871,-3.9665,-3.9615,-3.9487,-3.9332,-3.9253,-3.9067,-3.8996,-3.8754,-3.8652,-3.8504,-3.8416,-3.8381,-3.8297,-3.8257,-3.8312,-3.8322,-3.8259,-3.8247,-3.8175,-3.8174,-3.8173,-3.8173,0,-4.0529,-4.0346,-4.0252,-4.0019,-3.9958,-3.9928,-3.9724,-3.9669,-3.9526,-3.9428,-3.9392,-3.9165,-3.9036,-3.8838,-3.8648,-3.8548,-3.8482,-3.842,-3.8542,-3.8518,-3.8555,-3.8553,-3.8717,-3.8725,-3.8487,-3.849,-3.8492,0,-4.0632,-4.0596,-4.0359,-4.0295,-4.0194,-4.0093,-4.0008,-3.9803,-3.9721,-3.952,-3.9488,-3.9345,-3.9219,-3.902,-3.8834,-3.8686,-3.8616,-3.8683,-3.8592,-3.8646,-3.861,-3.8614,-3.8606,-3.8704,-3.8708,-3.8711,-3.8713,0,-4.0833,-4.0744,-4.0632,-4.0488,-4.0393,-4.0268,-4.0133,-4.0089,-3.9853,-3.9769,-3.9636,-3.9539,-3.9346,-3.9203,-3.9029,-3.8909,-3.877,-3.8744,-3.8741,-3.8795,-3.8865,-3.8823,-3.8596,-3.874,-3.8738,-3.8736,-3.8734,-3.8733,-4.1006,-4.0963,-4.0789,-4.0669,-4.0546,-4.0424,-4.036,-4.0209,-4.0096,-3.9925,-3.9809,-3.9682,-3.9503,-3.9256,-3.9143,-3.9036,-3.8976,-3.8975,-3.8973,-3.8975,-3.8993,-3.8886,-3.9004,-3.9003,-3.9002,-3.9001,-3.9,0,-4.1194,-4.1072,-4.0964,-4.0782,-4.0686,-4.0568,-4.0411,-4.0337,-4.0229,-4.0077,-3.9957,-3.9801,-3.9661,-3.9464,-3.9308,-3.9259,-3.9191,-3.9224,-3.9224,-3.9197,-3.9057,-3.9073,-3.9282,-3.9282,-3.9282,-3.9282,-3.9282,-3.9282,-4.128,-4.1199,-4.1089,-4.0943,-4.0818,-4.0695,-4.0615,-4.0499,-4.0376,-4.0212,-4.0096,-3.997,-3.9797,-3.9626,-3.949,-3.9434,-3.9383,-3.9437,-3.9362,-3.9234,-3.9208,-3.9183,-3.9196,-3.9428,-3.9429,-3.9509,-3.951,-3.9511]},{"header":{"parameterUnit":"m.s-1","parameterCategory":1,"la1":30.2991,"la2":30.254,"lo1":-89.0895,"lo2":-89.0444,"dy":0.0017,"dx":0.0017,"nx":28,"ny":28,"refTime":"2024-08-24T21:00:00:Z","depth":0,"parameterNumber":3,"parameterNumberName":"V-component_of_WINDS"},"data":[0,0,0,0,0,0,0,0,0,0,0,0,0,0,0,0,0,0,0,0,0,0,0,0,0,0,0,0,0,0,0,0,0,0,0,0,0,0,0,0,0,0,0,0,0,0,0,0,0,0,0,0,0,0,0,0,0,0,1.7117,1.7117,0,1.7114,1.7114,1.7114,1.7165,1.7167,1.7168,1.717,1.716,1.7159,1.7157,0,0,0,0,0,0,0,0,0,0,0,0,0,1.716,1.7159,1.7117,1.7117,1.7117,1.7114,1.7114,1.7114,1.7165,1.7167,1.7169,1.717,1.7161,1.7159,1.7157,0,0,0,0,0,0,0,0,0,0,0,0,0,1.7147,1.7159,1.7117,1.7142,1.7145,1.7114,1.7114,1.7114,1.7165,1.7167,1.7169,1.7171,1.7161,1.7159,1.7157,1.7099,0,0,1.7149,1.7148,0,0,0,0,0,0,0,0,1.7148,1.7146,1.7139,1.7141,1.7143,1.7142,1.7126,1.7109,1.7164,1.7157,1.717,1.7172,1.7152,1.7151,1.7145,1.7099,1.7099,1.7149,1.7148,1.7147,1.7146,0,0,0,0,0,0,0,1.7149,1.7146,1.7115,1.7138,1.7141,1.7151,1.7152,1.7123,1.7142,1.7158,1.7162,1.7161,1.7154,1.7147,1.7145,1.7098,1.7149,1.7147,1.7146,1.7145,1.6999,1.6997,0,0,0,0,0,0,1.7147,1.7147,1.7116,1.7115,1.7151,1.7149,1.715,1.714,1.7143,1.7145,1.7159,1.7163,1.715,1.7148,1.7145,1.7074,1.7147,1.7145,1.7143,1.7001,1.6999,1.6996,0,0,0,0,0,0,1.7148,1.7144,1.7116,1.7132,1.7129,1.7146,1.7135,1.7139,1.7133,1.7144,1.7147,1.7149,1.7152,1.7148,1.711,1.7074,1.7144,1.7141,1.7004,1.7001,1.6997,1.6933,0,0,0,0,0,0,1.7149,1.7144,1.7124,1.7131,1.7128,1.7082,1.7133,1.7137,1.7129,1.7135,1.7136,1.7138,1.7153,1.7113,1.7107,1.7072,1.714,1.7008,1.7003,1.6998,1.6938,1.6928,1.6918,0,0,0,0,0,1.715,1.7106,1.7123,1.7119,1.7104,1.708,1.7078,1.7099,1.7126,1.7105,1.7111,1.7138,1.708,1.7108,1.7103,1.7066,1.701,1.7004,1.6999,1.6943,1.693,1.6919,0,0,0,0,0,0,1.7093,1.7108,1.7126,1.7084,1.708,1.7089,1.7063,1.7085,1.7073,1.7078,1.7102,1.7102,1.7057,1.7059,1.709,1.7008,1.7049,1.7042,1.7009,1.6996,1.6987,1.6985,1.7138,0,0,0,0,0,1.7076,1.7058,1.7071,1.7031,1.7029,1.7046,1.7036,1.7053,1.7049,1.7048,1.7052,1.7045,1.7025,1.7012,1.6995,1.694,1.6937,1.6912,1.6902,1.6894,1.6886,1.6851,1.6838,1.6978,1.6978,1.6978,0,0,1.7039,1.7045,1.7031,1.702,1.7019,1.6996,1.7044,1.7019,1.7001,1.7043,1.7006,1.7008,1.7003,1.6954,1.6933,1.6954,1.6847,1.6887,1.688,1.6877,1.6844,1.6831,1.6819,1.6974,1.6975,1.6975,0,0,1.6959,1.6964,1.693,1.6928,1.6927,1.6939,1.693,1.6935,1.6938,1.6902,1.6932,1.691,1.6877,1.687,1.6862,1.6777,1.6798,1.6771,1.6718,1.6684,1.6673,1.6663,1.6627,1.6615,1.6764,1.6764,1.6764,0,1.6913,1.6882,1.6909,1.6881,1.6872,1.6911,1.6874,1.6871,1.6863,1.6855,1.6879,1.6835,1.6835,1.6782,1.6761,1.6756,1.6743,1.6769,1.6673,1.6663,1.6654,1.662,1.6607,1.6761,1.6761,1.6761,1.6762,0,1.6823,1.68,1.6773,1.6765,1.6754,1.6722,1.674,1.6726,1.6742,1.675,1.6709,1.671,1.6691,1.6681,1.6698,1.663,1.6642,1.6669,1.671,1.6637,1.6605,1.6592,1.6755,1.6756,1.6758,1.6759,0,0,1.6705,1.6712,1.6701,1.6696,1.6697,1.6679,1.6647,1.663,1.6614,1.6608,1.6577,1.6547,1.6571,1.6562,1.6578,1.6549,1.6475,1.6579,1.6579,1.6555,1.6393,1.6368,1.6353,1.6491,1.6489,1.6487,1.6391,0,1.6624,1.6571,1.6593,1.6536,1.6513,1.6549,1.652,1.6515,1.6521,1.65,1.6506,1.6482,1.6519,1.6513,1.6486,1.649,1.6442,1.6497,1.6457,1.6456,1.6453,1.6338,1.6313,1.6223,1.638,1.6378,1.6376,0,1.6522,1.6511,1.6452,1.6453,1.6445,1.6419,1.6402,1.6384,1.6378,1.6384,1.6372,1.6393,1.6357,1.6401,1.6349,1.6386,1.6372,1.637,1.6367,1.636,1.6408,1.6322,1.6196,1.618,1.6358,1.636,1.6361,0,1.6435,1.6406,1.6366,1.6362,1.6364,1.6344,1.6343,1.634,1.6327,1.6312,1.6303,1.6284,1.6272,1.6255,1.6268,1.6301,1.6212,1.6258,1.6211,1.621,1.6187,1.6187,1.605,1.6186,1.6186,1.6187,1.6187,0,1.6339,1.63,1.6327,1.6301,1.6257,1.6282,1.6237,1.624,1.6236,1.6209,1.624,1.6213,1.6235,1.6209,1.6219,1.6171,1.6167,1.6167,1.6169,1.6161,1.616,1.6148,1.6152,1.6183,1.6184,1.6185,1.6185,0,1.6233,1.625,1.6208,1.6214,1.6214,1.6181,1.6184,1.6158,1.6167,1.6132,1.6125,1.6136,1.6107,1.612,1.6089,1.6095,1.6031,1.6045,1.6033,1.6034,1.5984,1.5986,1.583,1.5808,1.5963,1.5962,1.5961,0,1.6168,1.6139,1.6142,1.6127,1.6124,1.61,1.6087,1.611,1.6094,1.6083,1.6057,1.6031,1.6011,1.5961,1.5964,1.5939,1.5948,1.5895,1.5944,1.5935,1.594,1.5939,1.5933,1.5884,1.5882,1.588,1.5879,0,1.6049,1.6059,1.604,1.6023,1.6007,1.5994,1.5984,1.5969,1.5991,1.5971,1.5942,1.5926,1.5894,1.5865,1.5842,1.5838,1.5859,1.5864,1.5851,1.584,1.5832,1.5829,1.6,1.5867,1.5868,1.5869,1.587,1.587,1.5958,1.5932,1.5929,1.5906,1.5901,1.589,1.5865,1.587,1.5847,1.5824,1.5838,1.5802,1.5792,1.5764,1.5756,1.5725,1.5746,1.5728,1.5722,1.5716,1.5706,1.5841,1.5722,1.5722,1.5723,1.5723,1.5723,0,1.5836,1.5836,1.5815,1.5799,1.5779,1.5806,1.5795,1.5775,1.5744,1.5735,1.5714,1.5678,1.5649,1.565,1.5622,1.5597,1.5605,1.5588,1.5587,1.5584,1.5693,1.5705,1.5581,1.5581,1.5581,1.5581,1.5581,1.5581,1.577,1.5725,1.5734,1.5686,1.5685,1.5652,1.5642,1.563,1.5622,1.5581,1.5558,1.556,1.5552,1.5524,1.5497,1.5497,1.5483,1.546,1.5463,1.5564,1.5578,1.5591,1.5602,1.5458,1.5458,1.5357,1.5356,1.5355]}]]